Wind_Speed
6 5 3 2 2 4 4 4 4 4 5 5 4 4 4 4 5 6 6 6 6 5 6 6 6 5 6 6 7 7 6 6 5 5 5 5 5 6 6 6 7 6 6
7 6 5 3 4 5 5 5 5 4 5 4 4 3 4 4 5 5 6 5 5 5 6 6 6 6 6 6 7 6 6 6 6 6 5 5 6 6 6 6 6 6 5
7 7 6 5 5 5 5 5 5 4 4 4 4 3 3 4 5 5 6 5 5 5 5 6 6 6 6 6 7 7 6 6 6 6 6 5 6 6 6 7 7 6 5
7 7 6 6 6 6 5 5 4 3 4 5 4 4 4 5 5 5 5 5 5 5 5 5 6 6 7 7 7 6 6 6 6 7 6 6 5 5 6 6 6 5 5
7 7 7 7 6 6 5 4 3 3 4 5 5 5 5 4 4 5 5 5 5 4 5 5 6 6 6 6 7 7 6 6 6 7 7 7 5 5 5 6 5 5 6
7 7 7 7 6 6 5 5 4 3 3 5 5 5 5 5 5 5 5 5 5 5 4 4 5 6 6 7 8 7 6 6 6 7 6 7 6 6 5 5 5 5 6
7 7 7 7 7 6 6 5 5 4 4 5 5 6 5 5 5 5 4 4 4 4 4 5 5 5 6 6 7 7 7 7 7 8 7 6 6 6 5 5 6 5 6
7 8 7 7 7 6 6 6 6 6 6 6 6 6 5 4 4 4 4 4 4 3 4 5 5 6 6 6 7 8 8 8 8 8 8 6 6 6 6 5 6 5 5
7 8 7 7 7 7 8 7 8 7 7 6 6 5 5 4 4 4 4 4 3 2 3 4 5 6 6 7 7 8 8 8 7 8 7 6 6 6 6 6 7 6 6
8 8 8 8 8 8 9 9 9 8 8 7 6 6 5 4 4 3 3 4 3 2 2 3 5 6 6 6 8 8 7 7 6 7 7 6 6 6 6 6 6 6 6
7 7 7 7 8 8 9 9 9 9 8 7 7 6 6 5 4 3 3 3 3 2 2 3 5 6 6 6 7 6 6 6 6 6 6 6 6 6 6 6 6 6 6
7 7 7 8 8 8 8 8 9 8 8 7 7 6 6 6 5 4 3 2 2 1 2 3 5 6 6 6 6 5 6 5 6 6 6 6 6 6 7 6 6 6 5
6 6 6 6 8 8 8 8 7 7 7 7 6 5 6 6 5 4 3 3 2 1 2 3 5 5 6 6 5 5 5 6 6 6 6 6 6 6 6 6 6 6 5
6 6 5 5 6 7 7 7 7 6 6 7 7 6 5 4 4 4 4 3 2 1 2 3 4 4 4 4 5 5 5 6 6 6 6 7 6 7 7 7 6 5 5
7 6 5 6 6 6 7 7 7 6 6 6 5 5 5 4 4 4 4 3 3 2 1 3 3 4 4 4 5 5 5 6 7 6 7 7 7 7 7 6 6 6 6
7 7 5 6 6 7 7 6 6 6 6 6 5 4 4 4 4 4 3 3 2 3 3 2 2 3 3 4 4 4 5 5 6 6 7 7 7 7 7 7 7 7 7
7 7 6 6 7 6 6 7 7 6 5 5 4 4 4 4 4 4 4 3 2 2 1 2 2 3 3 3 3 3 4 5 6 6 7 7 7 8 8 8 7 7 7
6 6 7 6 6 6 6 6 6 6 5 5 4 4 3 3 3 3 4 4 3 2 1 0 1 2 3 3 3 4 5 6 6 7 8 7 7 7 8 8 8 8 8
5 5 6 6 5 5 5 5 5 5 5 5 5 4 3 3 4 4 4 3 3 3 3 2 2 1 2 2 3 4 5 6 6 7 7 7 7 7 7 8 8 9 9
4 4 4 5 5 4 4 5 5 5 5 5 5 5 4 4 4 4 4 3 4 4 3 3 3 3 3 3 3 4 5 5 6 6 6 6 7 7 7 8 9 9 9
4 4 4 4 5 5 5 5 5 5 5 5 5 5 5 5 5 6 5 5 5 4 4 4 4 4 4 4 4 4 4 5 5 5 6 6 7 8 8 9 10 10 10
4 5 5 5 5 4 5 5 5 5 5 5 5 5 5 5 5 6 6 6 5 5 5 5 5 5 4 4 5 6 5 6 6 7 7 8 8 9 9 10 11 11 12
5 5 5 5 5 5 5 5 6 5 5 5 5 5 5 6 6 6 6 6 6 6 6 6 5 5 5 5 5 5 6 7 7 8 9 9 10 10 10 11 12 12 13
5 5 6 6 5 6 6 6 6 6 7 7 7 7 7 7 7 7 7 7 7 7 6 7 7 6 7 7 7 7 7 8 8 8 9 9 10 11 11 12 13 12 13
5 6 7 7 7 7 7 8 8 8 8 8 8 8 8 8 9 8 9 9 9 8 8 9 9 9 9 9 9 8 8 9 9 9 10 10 11 12 13 13 13 14 14
7 7 8 8 8 8 8 9 9 10 10 10 10 10 10 10 9 9 9 10 10 10 10 10 10 10 10 10 9 9 10 10 10 10 10 11 12 13 14 14 14 14 15
Wind_Direction
47 43 52 80 141 141 149 157 159 159 159 156 160 169 171 168 171 172 172 173 176 179 183 180 179 180 180 190 186 187 191 200 206 215 224 229 230 229 227 235 238 248 251
46 45 50 88 121 135 147 147 149 154 159 155 155 161 170 174 166 171 172 178 182 186 185 188 189 190 188 194 194 192 196 207 217 220 222 227 234 232 232 232 230 239 248
48 49 55 85 107 116 129 137 139 147 160 158 155 158 165 170 170 171 171 178 186 187 191 197 198 195 190 193 197 196 200 206 217 221 224 232 229 233 237 231 228 238 252
49 52 60 80 98 106 111 123 125 135 156 161 158 156 158 163 168 173 172 175 182 183 191 198 198 198 194 193 197 198 204 210 221 222 224 225 222 230 231 226 227 238 249
57 63 67 72 87 93 91 93 109 128 155 165 161 156 156 157 165 170 171 175 175 183 196 207 202 199 199 202 203 208 214 217 220 224 227 217 213 218 221 223 228 235 241
60 64 67 72 79 85 84 80 86 109 147 153 153 151 154 157 158 166 176 180 178 182 197 204 202 198 201 204 207 214 220 222 221 221 218 211 212 217 217 226 238 235 235
64 64 68 78 74 78 79 79 81 93 122 135 136 137 141 146 155 160 170 175 176 187 186 192 197 200 200 201 206 213 214 219 222 218 215 211 213 215 223 233 234 237 232
67 66 66 72 71 73 72 78 84 91 111 120 126 133 138 138 147 153 164 175 188 183 192 191 193 196 196 201 202 210 215 220 217 216 212 213 216 220 226 233 233 235 234
63 64 70 73 72 76 72 82 88 88 102 110 114 122 136 138 148 145 153 177 186 175 192 193 197 197 202 204 205 208 211 212 214 217 213 217 221 226 227 230 233 231 239
59 60 73 74 73 78 82 87 87 87 96 101 105 108 115 129 145 152 151 180 176 159 171 186 194 192 193 202 208 203 201 204 205 209 215 217 221 225 229 231 232 234 242
57 61 73 80 76 81 87 87 85 85 90 92 100 99 98 106 123 128 126 167 171 157 178 189 198 194 193 197 202 202 203 209 205 210 212 215 222 231 234 232 231 233 239
57 59 75 85 84 85 87 88 89 86 87 94 102 101 100 101 104 102 97 130 153 164 183 185 190 194 192 196 201 203 209 208 204 211 217 223 232 239 241 235 234 235 242
60 63 77 86 84 87 87 86 90 91 88 92 97 98 91 90 91 86 77 112 99 99 163 170 181 176 175 184 192 193 202 207 207 212 221 228 237 246 246 241 242 242 248
59 63 73 84 78 82 84 87 91 89 88 86 78 80 86 79 73 76 80 87 77 96 170 173 185 186 180 181 193 200 206 207 215 221 227 232 241 244 243 244 248 249 251
52 56 61 64 63 70 74 75 77 78 75 77 75 66 62 62 63 67 83 80 73 69 154 180 181 186 191 196 202 207 213 212 218 227 234 239 242 242 242 241 240 246 254
48 57 62 57 55 61 64 64 63 65 69 70 72 66 52 43 41 41 68 71 75 75 93 117 161 185 192 206 216 219 220 214 215 226 236 240 240 237 238 242 246 249 256
51 59 64 57 54 53 51 51 51 48 46 50 59 62 50 41 35 45 43 53 50 49 88 136 164 196 212 227 228 222 220 225 227 236 240 242 244 243 242 245 251 256 260
45 51 52 46 49 46 42 37 35 34 35 39 37 34 30 28 26 33 28 20 12 19 22 70 193 222 222 233 233 232 236 241 244 245 243 247 250 248 246 248 255 260 264
35 37 37 37 36 32 30 25 22 22 25 29 24 15 10 12 13 14 10 6 358 350 335 327 310 286 259 263 253 250 248 246 247 249 248 252 257 255 253 255 259 264 267
20 15 13 14 13 9 8 6 7 7 12 17 16 5 6 2 358 354 351 345 343 335 320 312 314 303 282 269 264 264 257 255 251 246 246 251 258 261 259 257 260 262 267
357 350 346 347 347 346 351 354 354 350 355 3 9 6 354 348 352 350 339 333 330 323 311 311 316 305 286 281 279 274 268 264 259 247 248 253 259 262 261 263 266 266 269
336 336 334 332 334 331 333 341 339 337 340 349 353 351 345 340 331 332 334 331 328 322 311 312 315 314 307 299 285 282 286 282 273 265 263 261 263 267 271 272 272 272 275
320 322 327 321 320 321 320 321 327 326 325 326 327 326 327 326 320 320 325 328 324 316 310 310 317 321 314 312 304 300 296 288 281 275 272 270 269 272 275 278 279 277 280
315 317 324 323 318 313 311 311 316 319 317 316 313 311 311 313 313 316 314 313 316 313 312 311 310 304 305 304 303 299 298 299 285 281 277 274 275 278 281 284 282 280 281
307 311 318 317 315 313 309 307 310 311 309 308 307 304 303 304 306 309 311 312 313 310 308 306 301 300 298 295 296 292 292 290 283 280 278 277 279 281 283 286 286 283 282
305 310 311 309 308 309 306 305 307 309 309 306 303 300 300 301 304 305 306 305 305 301 300 300 298 294 293 291 289 287 286 285 281 276 277 279 283 284 284 284 284 284 284
Height
5871 5869 5866 5865 5866 5867 5868 5869 5869 5870 5871 5871 5872 5872 5872 5872 5872 5873 5873 5874 5874 5875 5875 5876 5876 5877 5878 5878 5879 5880 5881 5882 5883 5883 5884 5884 5885 5886 5887 5887 5887 5887 5887
5871 5868 5865 5864 5864 5866 5867 5868 5869 5869 5870 5871 5871 5871 5872 5872 5872 5872 5873 5873 5874 5874 5875 5875 5876 5876 5877 5878 5879 5880 5881 5882 5882 5883 5883 5884 5884 5885 5886 5886 5886 5887 5886
5872 5869 5865 5864 5864 5866 5867 5868 5869 5869 5869 5870 5871 5871 5871 5871 5872 5872 5872 5873 5873 5873 5874 5874 5875 5876 5876 5877 5878 5879 5880 5881 5882 5882 5883 5883 5884 5884 5885 5886 5886 5886 5886
5873 5870 5867 5866 5866 5866 5867 5868 5868 5868 5869 5869 5870 5870 5871 5871 5871 5872 5872 5872 5872 5873 5873 5873 5874 5875 5875 5876 5877 5878 5879 5880 5881 5881 5882 5883 5883 5884 5884 5885 5885 5886 5886
5874 5872 5870 5869 5868 5868 5868 5868 5868 5867 5867 5868 5869 5870 5870 5870 5871 5871 5871 5871 5871 5872 5872 5872 5873 5873 5874 5875 5876 5877 5878 5879 5880 5880 5881 5882 5883 5883 5884 5884 5885 5885 5885
5875 5874 5872 5871 5870 5870 5869 5869 5867 5866 5866 5867 5868 5869 5869 5870 5870 5870 5870 5870 5871 5871 5871 5871 5871 5872 5873 5873 5875 5876 5877 5878 5878 5879 5879 5880 5882 5883 5883 5884 5884 5884 5885
5877 5875 5873 5873 5872 5871 5870 5869 5868 5866 5866 5866 5867 5868 5869 5869 5869 5869 5869 5870 5870 5870 5869 5869 5870 5870 5871 5872 5873 5875 5876 5877 5877 5878 5879 5880 5881 5882 5883 5883 5883 5884 5884
5878 5876 5875 5874 5873 5872 5871 5870 5869 5867 5867 5867 5867 5868 5868 5867 5867 5868 5868 5868 5869 5868 5868 5868 5868 5869 5870 5871 5872 5874 5875 5876 5876 5877 5878 5880 5880 5881 5882 5882 5882 5883 5883
5879 5878 5876 5875 5874 5873 5872 5871 5870 5869 5868 5868 5868 5867 5866 5866 5866 5867 5867 5867 5867 5867 5866 5866 5867 5867 5868 5869 5871 5872 5874 5874 5875 5876 5878 5879 5880 5881 5881 5882 5882 5882 5883
5880 5879 5878 5877 5876 5875 5874 5873 5872 5871 5870 5869 5869 5867 5866 5864 5864 5866 5866 5866 5866 5866 5865 5865 5865 5866 5867 5868 5870 5871 5872 5874 5875 5876 5877 5878 5879 5880 5881 5881 5881 5882 5882
5882 5881 5879 5879 5878 5877 5876 5875 5874 5873 5872 5871 5870 5868 5866 5864 5864 5865 5866 5866 5866 5865 5864 5864 5864 5865 5866 5867 5868 5870 5871 5873 5874 5875 5877 5878 5879 5879 5880 5880 5880 5880 5881
5883 5882 5881 5880 5879 5878 5877 5877 5876 5875 5873 5872 5871 5870 5868 5866 5866 5867 5867 5866 5866 5865 5864 5864 5864 5864 5865 5866 5868 5869 5870 5872 5874 5875 5876 5877 5878 5878 5878 5879 5879 5879 5879
5884 5883 5882 5881 5881 5880 5879 5878 5877 5876 5874 5873 5872 5872 5871 5870 5869 5869 5868 5867 5866 5865 5864 5863 5863 5864 5865 5866 5867 5868 5870 5872 5873 5874 5875 5876 5877 5877 5877 5878 5878 5878 5878
5886 5885 5884 5883 5882 5881 5880 5879 5878 5877 5876 5875 5874 5873 5873 5873 5872 5871 5869 5868 5867 5865 5863 5863 5863 5864 5865 5866 5867 5868 5869 5871 5873 5874 5875 5875 5876 5877 5877 5877 5877 5877 5877
5887 5886 5885 5884 5884 5882 5882 5881 5880 5878 5878 5877 5876 5875 5875 5874 5873 5872 5870 5869 5868 5866 5864 5863 5864 5865 5866 5867 5867 5868 5869 5870 5872 5873 5874 5874 5875 5875 5875 5876 5876 5876 5876
5889 5887 5887 5886 5885 5884 5883 5882 5881 5880 5879 5878 5877 5877 5876 5875 5874 5873 5871 5870 5868 5867 5865 5865 5865 5865 5866 5867 5867 5868 5869 5870 5871 5872 5873 5873 5874 5874 5874 5875 5875 5874 5875
5890 5889 5889 5888 5887 5886 5884 5883 5882 5881 5880 5879 5878 5877 5877 5876 5874 5873 5872 5871 5869 5868 5867 5866 5866 5867 5867 5867 5868 5868 5869 5870 5870 5871 5871 5872 5873 5873 5873 5873 5873 5873 5873
5892 5891 5890 5889 5888 5887 5885 5884 5883 5882 5881 5880 5879 5878 5877 5876 5875 5874 5873 5872 5870 5869 5868 5868 5868 5868 5868 5868 5868 5868 5868 5869 5869 5870 5870 5871 5871 5871 5871 5872 5872 5872 5872
5893 5892 5891 5890 5889 5888 5886 5885 5884 5883 5882 5881 5880 5879 5877 5877 5875 5875 5874 5872 5871 5870 5869 5869 5869 5868 5868 5867 5867 5867 5868 5868 5868 5868 5869 5869 5870 5870 5870 5870 5870 5870 5870
5894 5893 5892 5891 5889 5888 5887 5886 5884 5883 5882 5881 5880 5879 5878 5877 5876 5875 5874 5872 5871 5870 5869 5869 5868 5868 5868 5867 5867 5867 5867 5867 5867 5867 5867 5867 5868 5868 5868 5868 5868 5868 5867
5894 5893 5892 5891 5890 5889 5887 5886 5885 5884 5883 5881 5880 5879 5878 5877 5876 5875 5873 5872 5871 5870 5870 5869 5868 5868 5867 5866 5866 5866 5866 5866 5866 5866 5866 5866 5866 5866 5866 5866 5866 5865 5865
5894 5893 5892 5891 5890 5889 5887 5886 5885 5884 5883 5881 5880 5879 5878 5877 5876 5875 5873 5872 5871 5870 5869 5868 5868 5867 5866 5866 5866 5865 5865 5866 5865 5865 5865 5865 5864 5864 5864 5864 5863 5863 5862
5894 5893 5892 5890 5889 5888 5887 5886 5884 5883 5882 5881 5880 5879 5878 5876 5875 5874 5873 5871 5870 5869 5868 5868 5867 5866 5865 5865 5865 5864 5864 5864 5863 5863 5863 5862 5862 5861 5861 5861 5861 5860 5859
5893 5892 5891 5890 5888 5887 5886 5885 5884 5882 5881 5880 5879 5878 5877 5876 5874 5873 5872 5871 5869 5868 5867 5866 5865 5865 5864 5864 5863 5862 5862 5861 5861 5861 5861 5860 5860 5859 5859 5858 5857 5857 5856
5892 5891 5890 5889 5888 5886 5885 5884 5883 5881 5880 5879 5878 5876 5875 5874 5873 5872 5871 5869 5868 5867 5866 5865 5864 5863 5863 5862 5861 5860 5860 5859 5859 5859 5858 5858 5857 5856 5856 5855 5854 5854 5853
5891 5890 5889 5888 5886 5885 5884 5883 5881 5880 5879 5877 5876 5875 5873 5872 5871 5870 5869 5868 5866 5865 5864 5863 5862 5861 5861 5860 5859 5858 5858 5857 5856 5856 5855 5855 5854 5853 5853 5852 5851 5850 5849